116P/Wild 4 (2016)

Japanese version
Home page
Updated on March 3, 2018

---------------------------------------------------------------------

* Profile

* Pictures

* Orbital Elements

Epoch 2016 Jan. 13.0 TT = JDT 2457400.5
T 2016 Jan. 11.54432 TT                                 MPCW
q   2.1870976            (2000.0)            P               Q
n   0.15149231     Peri.  173.31635     -0.96889755     +0.24643325
a   3.4850497      Node    20.99189     -0.22985598     -0.86247461
e   0.3724343      Incl.    3.60789     -0.09167204     -0.44204999
P   6.51
From 2469 observations 2006 Sept. 24-2017 Aug. 20, mean residual 0".6.
     Nongravitational parameters A1 = +1.51, A2 = -0.1954, A3 = +0.7109.

* Finding Charts

* Magnitudes Graph

        m1 = 3.5 + 5 log d + 25.0 log r

---------------------------------------------------------------------

The orbital elements are published on M.P.E.C. 2017-T14.
The charts are made with StellaNavigator Ver.8 (AstroArts).
The magnitudes graphs are made with Comet for Windows.

---------------------------------------------------------------------

Copyright(C) Seiichi Yoshida (comet@aerith.net). All rights reserved.